Regional Weather Roundup
Issued by NWS Grand Forks, ND

Home | Current Version | Previous Version | Graphics & Text | Print | Product List | Glossary On
Versions: 1 2 3 4 5 6 7 8 9 10 11 12 13 14 15 16 17 18 19 20 21 22 23 24 25 26 27 28 29 30 31 32 33 34 35 36 37 38 39 40 41 42 43 44 45 46 47 48 49 50
253
ASUS43 KFGF 171931
RWRFGF
PRAIRIE TO PINES  WEATHER ROUNDUP
NATIONAL WEATHER SERVICE EASTERN NORTH DAKOTA/GRAND FORKS ND
100 PM CST FRI NOV 17 2017

 **SATELLITE DATA USED TO AUGMENT SKY COVER AT AUTOMATED STATIONS**
 *****  WEATHER ACROSS EASTERN NORTH DAKOTA  *****

CITY           SKY/WX    TMP DP  RH WIND       PRES   REMARKS
GRAND FORKS    CLOUDY    26  17  68 NW15      29.70S WCI  14
GRAND FRKS AFB FAIR      25  15  65 NW13      29.70S WCI  13
GRAND FRKS NWS   N/A     27 N/A N/A NW12        N/A  WCI  16
DEVILS LAKE    FAIR      20  14  77 NW9       29.69F WCI   9
FARGO          FAIR      35  26  69 NW15      29.67F
WAHPETON ARPT  NOT AVBL
$$

 ***** WEATHER ACROSS CENTRAL AND WESTERN NORTH DAKOTA  *****

CITY           SKY/WX    TMP DP  RH WIND       PRES   REMARKS
BISMARCK       FAIR      35  23  61 NW6       29.69F
MINOT          FAIR      25  12  58 NW6       29.68F WCI  18
JAMESTOWN      FAIR      30  18  60 NW14      29.65F WCI  19
MINOT AFB      FAIR      23  11  62 CALM      29.67F
GARRISON         N/A     26  17  68 NW5       29.67F WCI  20
WILLISTON      FAIR      29  14  53 CALM      29.66F
DICKINSON      FAIR      39  26  59 NE3       29.62F
HETTINGER      PTSUNNY   41  25  53 CALM      29.64F
$$

 *****  OTHER AIRPORT OBSERVATIONS IN OUR AREA  *****

CITY           SKY/WX    TMP DP  RH WIND       PRES   REMARKS
WALHALLA       FAIR      21  14  73 NW9G17    29.69R WCI  11
GRAFTON AIRPOR FAIR      23  14  68 W12       29.72F WCI  12
VALLEY CITY AR MIX PCPN  28  19  69 NW13      29.67F WCI  18
CANDO          FAIR      21  16  79 NW10      29.70S WCI  10
CAVALIER APRT  FAIR      23  14  68 NW12      29.69S WCI  12
GWINNER          N/A     37  25  60 N12       29.64F
SHEYENNE NWR     N/A     36  24  61 N8        29.95
ROLLA          FAIR      19  12  73 SW6       29.66F WCI  11
 ***** THE ABOVE OBSERVATIONS ARE NON NWS ARE NOT QUALITY
       CONTROLLED AND MAY MIS-REPORT RAIN FOR SNOW...
$$

  *****  WEATHER ACROSS NORTHERN MINNESOTA  *****

CITY           SKY/WX    TMP DP  RH WIND       PRES   REMARKS
FLAG ISLAND    FAIR      28  19  69 NW12      29.61R WCI  18
WARROAD        FAIR      28  21  74 W9        29.63R WCI  20
ROSEAU         FAIR      25  18  74 W13       29.65R WCI  13
HALLOCK        FAIR      21  16  79 NW9       29.69S WCI  11
THF RVR FALLS  FAIR      27  19  72 NW14      29.68R WCI  16
BAUDETTE       CLOUDY    34  29  82 W10       29.59S
WASKISH        FAIR      36  30  80 SW13      29.63R
CROOKSTON      FAIR      27  19  74 N15       29.69F WCI  15
STEPHEN NDAWN    N/A     23  16  74 NW9         N/A  WCI  13
GREENBUSH NDAW   N/A     21  16  79 W10         N/A  WCI  10
$$
  *****  WEATHER ACROSS CENTRAL AND WEST MINNESOTA  *****

CITY           SKY/WX    TMP DP  RH WIND       PRES   REMARKS
FOSSTON        FAIR      32  27  80 NW12      29.65F WCI  23
BEMIDJI        FAIR      36  31  81 W9        29.61S
PARK RAPIDS    FAIR      37  32  82 W8        29.61S
ELBOW LAKE     FAIR      35  33  91 W6        29.64F FOG
WADENA         FAIR      36  32  87 CALM      29.62F
DETROIT LAKES  FAIR      36  32  87 NW12      29.64F
MOORHEAD       FAIR      34  27  75 N15       29.66F WCI  24
FERGUS FALLS   FAIR      37  30  75 N8        29.65F
MORRIS MN      FAIR      37  34  87 N9        29.62F
STAPLES        CLOUDY    36  34  93 N5        29.64S
$$
  *****  WEATHER ELSEWHERE ACROSS MINNESOTA  *****

CITY           SKY/WX    TMP DP  RH WIND       PRES   REMARKS
DULUTH         CLOUDY    32  32 100 S10       29.61F FOG     WCI  24
INTRNTL FALLS  CLOUDY    37  29  72 W12       29.59S
ELY            CLOUDY    32  30  93 W8        29.61R WCI  25
CLOQUET        LGT SNOW  34  30  86 S8        29.61F
WHEATON        FAIR      37  30  75 N12G17    29.65F
BRAINERD       CLOUDY    36  32  85 NW10      29.65R
HIBBING        CLOUDY    32  31  96 W5        29.62R FOG
ALEXANDRIA     CLOUDY    37  34  89 NW12      29.65R
SAINT CLOUD    FAIR      40  34  79 VRB5      29.62F
MINNEAPOLIS    DRZL/FOG  38  38 100 E3        29.63F VSB 1
$$

  *****  WEATHER ACROSS SOUTH DAKOTA  *****

CITY           SKY/WX    TMP DP  RH WIND       PRES   REMARKS
SIOUX FALLS    PTSUNNY   50  39  66 N12       29.59R
BROOKINGS      CLOUDY    44  35  70 N7        29.58F
WATERTOWN      PTSUNNY   43  34  70 N15       29.60F
HURON          CLOUDY    46  33  60 N13       29.61F
SISSETON         N/A     39  32  76 N15       29.63F
ABERDEEN       CLOUDY    44  31  60 N10       29.64F
MITCHELL       CLOUDY    45  35  68 N15       29.63R
PIERRE         CLOUDY    43  38  82 NW8       29.63F
MOBRIDGE       CLOUDY    43  30  60 NE3       29.63F
RAPID CITY     CLOUDY    42  36  79 S8        29.63F
$$

  *****  SOME WEATHER IN NEARBY STATES *****

CITY           SKY/WX    TMP DP  RH WIND       PRES   REMARKS
GLASGOW MT     FAIR      38  27  64 CALM      29.60F
GREAT FALLS MT FAIR      45  17  32 W26G35    29.65R
CHEYENNE WY    PTSUNNY   49  35  58 VRB3      29.62F
SCOTTSBLUFF NE PTSUNNY   50  28  42 VRB7      29.61F
OMAHA NE       CLOUDY    57  52  83 SE5       29.52F FOG
DES MOINES IA  DRIZZLE   47  45  93 SE14      29.59F FOG
DAVENPORT IA   CLOUDY    40  36  86 S12G23    29.76F FOG
CHICAGO IL     CLOUDY    44  31  60 S18       29.88F
EAU CLAIRE WI  LGT SNOW  36  34  92 S7        29.67F FOG
LA CROSSE WI   CLOUDY    39  36  89 S13       29.67F
$$

  *****  SOME NATIONAL WEATHER *****

CITY           SKY/WX    TMP DP  RH WIND       PRES   REMARKS
LA GUARDIA NY  FAIR      48  21  34 NW17G26   30.05S
RALEIGH NC     PTSUNNY   55  30  38 NE5       30.18F
ATLANTA GA     FAIR      65  42  43 SE10      30.12F
NEW ORLEANS LA FAIR      77  60  55 S10       30.07F
OKLAHOMA CITY  PTSUNNY   78  56  46 S24G33    29.66F
ALBUQUERQUE NM PTSUNNY   66  19  16 SW10      30.02F
SALT LAKE CITY LGT RAIN  40  38  93 E6        29.83F FOG
LOS ANGELES CA PTSUNNY   69  61  75 W12       30.08F
BOISE ID       CLOUDY    43  26  51 NW21G31   30.03R
SEATTLE WA     PTSUNNY   46  39  76 SW16G22   30.08R
$$

*** WEATHER ACROSS MANITOBA...SASKATCHEWAN AND ONTARIO ***
                ***ONTARIO***

CITY           SKY/WX    TMP DP  RH WIND       PRES   REMARKS
GERALDTON      SNOWSHWR  32  30  93 S12G18    29.63F VSB 1/4 WCI  23
THUNDER BAY    LGT SNOW  34  34 100 S7        29.63F VSB 1
SIOUX LOOKOUT  CLOUDY    32  28  86 W9        29.52S WCI  24
TORONTO        MOSUNNY   36  21  55 S3        30.15F
BIG TROUT LK   LGT SNOW  25  25 100 S16G24    29.36S WCI  12
PICKLE LAKE    FRZ DRZL  30  28  93 SW16G23   29.46S FOG     WCI  19
DRYDEN         CLOUDY    34  30  86 W13G18    29.53R WCI  25
KENORA         PTSUNNY   27  23  86 W10       29.57R WCI  17
$$
                *** MANITOBA***

CITY           SKY/WX    TMP DP  RH WIND       PRES   REMARKS
BRANDON        MOSUNNY   18  10  73 W13       29.69F WCI   4
DAUPHIN        SUNNY     18   9  68 W18       29.67R WCI   2
ISLAND LAKE    NOT AVBL
PILOT MOUND      N/A     18  10  73 NW12        N/A  WCI   5
THE PAS        FLURRIES  14   9  79 W15       29.59  WCI  -1
THOMPSON       LGT SNOW  10   3  72 W13G18    29.43R DRFTSNOWWCI  -5
WINNIPEG       MOSUNNY   21  12  68 W12       29.69R WCI   9
LYNN LAKE      FLURRIES  10   7  85 W9G17     29.41R WCI  -2
CHURCHILL      LGT SNOW  16  12  86 S9        29.31F BLWGSNOWWCI   4
GILLAM         LGT SNOW  16  12  86 W10       29.28  VSB 1   WCI   3
$$
                ***SASKATCHEWAN***

CITY           SKY/WX    TMP DP  RH WIND       PRES   REMARKS
ESTEVAN        MOSUNNY   18   9  68 W5        29.67F WCI  11
KINDERSLEY     CLOUDY    10   7  85 NW7       29.67S WCI   0
LLOYDMINSTER   MOSUNNY    5   1  85 NW9       29.67R WCI  -9
PRINCE ALBERT  FLURRIES  12   5  73 W15       29.67R WCI  -4
REGINA         MOSUNNY    9   3  78 SW5       29.67F WCI   0
YORKTON        SUNNY     14   7  73 W12       29.65F WCI   0
N. BATTLEFORD  FLURRIES   9   1  72 NW15G21   29.71R WCI  -8
LA RONGE       FLURRIES  10   5  79 W12       29.60R WCI  -4
SASKATOON      PTSUNNY   14   5  67 W16       29.69F WCI  -2
SWIFT CURRENT  SUNNY     12   3  67 CALM      29.62R
$$
NOTE: THESE ARE AUTOMATED STATIONS WITH LIMITED QUALITY CONTROL
      "FAIR" INDICATES FEW OR NO CLOUDS BELOW 12,000 FEET WITH NO
      SIGNIFICANT WEATHER AND/OR OBSTRUCTIONS TO VISIBILITY.
      SKY/WX - SKY CONDITION AND SIGNIFICANT WEATHER.
      TMP - AIR TEMPERATURE.    DP   - DEWPOINT TEMPERATURE.
      RH  - RELATIVE HUMIDITY.  PRES - PRESSURE.
      HX  - HEAT INDEX.         WCI  - WIND CHILL INDEX.
$




USA.gov is the U.S. government's official web portal to all federal, state and local government web resources and services.